Time,TemperatureF,DewpointF,PressureIn,WindDirection,WindDirectionDegrees,WindSpeedMPH,WindSpeedGustMPH,Humidity,HourlyPrecipIn,Conditions,Clouds,dailyrainin,SoftwareType,DateUTC
2013-05-04 00:01:00,42.0,31.0,28.60,WNW,292,3.0,6.5,63,0.00,,,0.00,Rainwise IP-100,2013-05-04 05:01:00,
2013-05-04 00:06:00,41.8,32.0,28.60,WNW,292,1.4,6.3,65,0.00,,,0.00,Rainwise IP-100,2013-05-04 05:06:00,
2013-05-04 00:11:00,41.6,32.0,28.60,West,270,3.5,5.1,66,0.00,,,0.00,Rainwise IP-100,2013-05-04 05:11:00,
2013-05-04 00:16:00,41.4,31.0,28.60,WNW,292,2.1,5.1,67,0.00,,,0.00,Rainwise IP-100,2013-05-04 05:16:00,
2013-05-04 00:21:00,41.3,31.0,28.59,WNW,292,2.8,4.2,67,0.00,,,0.00,Rainwise IP-100,2013-05-04 05:21:00,
2013-05-04 00:26:00,41.2,31.0,28.59,West,270,2.3,4.9,67,0.00,,,0.00,Rainwise IP-100,2013-05-04 05:26:00,
2013-05-04 00:31:00,41.2,32.0,28.59,West,270,2.8,5.4,68,0.00,,,0.00,Rainwise IP-100,2013-05-04 05:31:00,
2013-05-04 00:37:00,41.1,31.0,28.58,West,270,1.9,4.9,67,0.00,,,0.00,Rainwise IP-100,2013-05-04 05:37:00,
2013-05-04 00:42:00,41.1,31.0,28.58,West,270,2.1,4.4,67,0.00,,,0.00,Rainwise IP-100,2013-05-04 05:42:00,
2013-05-04 00:47:00,41.0,31.0,28.58,WNW,292,1.6,3.3,67,0.00,,,0.00,Rainwise IP-100,2013-05-04 05:47:00,
2013-05-04 00:52:00,41.0,31.0,28.58,West,270,2.6,4.9,67,0.00,,,0.00,Rainwise IP-100,2013-05-04 05:52:00,
2013-05-04 00:57:00,41.0,31.0,28.58,WNW,292,2.6,5.6,67,0.00,,,0.00,Rainwise IP-100,2013-05-04 05:57:00,
2013-05-04 01:02:00,41.0,31.0,28.58,West,270,6.8,7.5,67,0.00,,,0.00,Rainwise IP-100,2013-05-04 06:02:00,
2013-05-04 01:07:00,41.0,31.0,28.58,WNW,292,2.3,7.9,66,0.00,,,0.00,Rainwise IP-100,2013-05-04 06:07:00,
2013-05-04 01:12:00,40.9,31.0,28.58,NW,315,3.0,7.0,67,0.00,,,0.00,Rainwise IP-100,2013-05-04 06:12:00,
2013-05-04 01:17:00,40.8,31.0,28.58,NNW,337,2.3,5.8,67,0.00,,,0.00,Rainwise IP-100,2013-05-04 06:17:00,
2013-05-04 01:22:00,40.4,31.0,28.58,WNW,292,3.0,5.1,68,0.00,,,0.00,Rainwise IP-100,2013-05-04 06:22:00,
2013-05-04 01:27:00,40.3,31.0,28.58,WNW,292,3.5,8.4,69,0.00,,,0.00,Rainwise IP-100,2013-05-04 06:27:00,
2013-05-04 01:32:00,40.3,31.0,28.57,NNW,337,3.7,5.8,68,0.00,,,0.00,Rainwise IP-100,2013-05-04 06:32:00,
2013-05-04 01:38:00,40.3,31.0,28.57,NNW,337,4.0,7.9,68,0.00,,,0.00,Rainwise IP-100,2013-05-04 06:38:00,
2013-05-04 01:43:00,40.3,31.0,28.57,NW,315,4.2,7.0,68,0.00,,,0.00,Rainwise IP-100,2013-05-04 06:43:00,
2013-05-04 01:48:00,40.4,31.0,28.58,NNW,337,5.1,6.3,68,0.00,,,0.00,Rainwise IP-100,2013-05-04 06:48:00,
2013-05-04 01:53:00,40.4,31.0,28.57,WNW,292,5.1,7.2,67,0.00,,,0.00,Rainwise IP-100,2013-05-04 06:53:00,
2013-05-04 01:58:00,40.5,31.0,28.56,NW,315,4.4,7.2,67,0.00,,,0.00,Rainwise IP-100,2013-05-04 06:58:00,
2013-05-04 02:03:00,40.8,31.0,28.57,WNW,292,4.9,6.3,66,0.00,,,0.00,Rainwise IP-100,2013-05-04 07:03:00,
2013-05-04 02:08:00,40.9,31.0,28.56,West,270,6.3,8.4,66,0.00,,,0.00,Rainwise IP-100,2013-05-04 07:08:00,
2013-05-04 02:13:00,41.0,31.0,28.56,NNW,337,6.1,8.9,65,0.00,,,0.00,Rainwise IP-100,2013-05-04 07:13:00,
2013-05-04 02:18:00,41.1,31.0,28.57,NNW,337,4.2,8.6,65,0.00,,,0.00,Rainwise IP-100,2013-05-04 07:18:00,
2013-05-04 02:23:00,41.0,31.0,28.56,WNW,292,3.0,7.0,65,0.00,,,0.00,Rainwise IP-100,2013-05-04 07:23:00,
2013-05-04 02:28:00,41.0,31.0,28.56,NNW,337,4.4,8.6,65,0.00,,,0.00,Rainwise IP-100,2013-05-04 07:28:00,
2013-05-04 02:33:00,41.0,31.0,28.56,NNW,337,4.4,7.5,65,0.00,,,0.00,Rainwise IP-100,2013-05-04 07:33:00,
2013-05-04 02:39:00,41.0,31.0,28.56,NW,315,4.7,9.3,65,0.00,,,0.00,Rainwise IP-100,2013-05-04 07:39:00,
2013-05-04 02:44:00,41.0,31.0,28.56,WNW,292,8.9,10.5,64,0.00,,,0.00,Rainwise IP-100,2013-05-04 07:44:00,
2013-05-04 02:49:00,41.1,31.0,28.56,NNW,337,6.8,9.8,64,0.00,,,0.00,Rainwise IP-100,2013-05-04 07:49:00,
2013-05-04 02:54:00,41.2,31.0,28.56,WNW,292,7.2,7.7,64,0.00,,,0.00,Rainwise IP-100,2013-05-04 07:54:00,
2013-05-04 02:59:00,41.1,31.0,28.55,NNW,337,5.1,10.3,64,0.00,,,0.00,Rainwise IP-100,2013-05-04 07:59:00,
2013-05-04 03:04:00,41.0,31.0,28.56,WNW,292,5.4,9.6,64,0.00,,,0.00,Rainwise IP-100,2013-05-04 08:04:00,
2013-05-04 03:09:00,41.0,31.0,28.55,NNW,337,6.3,11.7,64,0.00,,,0.00,Rainwise IP-100,2013-05-04 08:09:00,
2013-05-04 03:14:00,41.0,29.0,28.55,NW,315,4.7,11.4,63,0.00,,,0.00,Rainwise IP-100,2013-05-04 08:14:00,
2013-05-04 03:19:00,40.9,29.0,28.55,NNW,337,5.4,10.3,63,0.00,,,0.00,Rainwise IP-100,2013-05-04 08:19:00,
2013-05-04 03:24:00,40.9,29.0,28.55,WNW,292,4.4,9.6,63,0.00,,,0.00,Rainwise IP-100,2013-05-04 08:24:00,
2013-05-04 03:29:00,41.0,29.0,28.55,WNW,292,5.6,10.3,63,0.00,,,0.00,Rainwise IP-100,2013-05-04 08:29:00,
2013-05-04 03:34:00,41.0,29.0,28.55,NW,315,5.8,12.4,63,0.00,,,0.00,Rainwise IP-100,2013-05-04 08:34:00,
2013-05-04 03:40:00,41.1,29.0,28.54,NNW,337,6.8,9.6,63,0.00,,,0.00,Rainwise IP-100,2013-05-04 08:40:00,
2013-05-04 03:45:00,41.1,29.0,28.54,WNW,292,7.2,14.2,63,0.00,,,0.00,Rainwise IP-100,2013-05-04 08:45:00,
2013-05-04 03:50:00,41.2,29.0,28.54,NNW,337,8.2,11.9,62,0.00,,,0.00,Rainwise IP-100,2013-05-04 08:50:00,
2013-05-04 03:55:00,41.3,29.0,28.54,NW,315,10.5,12.6,62,0.00,,,0.00,Rainwise IP-100,2013-05-04 08:55:00,
2013-05-04 04:00:00,41.5,29.0,28.53,NNW,337,8.6,12.6,61,0.00,,,0.00,Rainwise IP-100,2013-05-04 09:00:00,
2013-05-04 04:05:00,41.7,29.0,28.53,NNW,337,7.7,14.5,60,0.00,,,0.00,Rainwise IP-100,2013-05-04 09:05:00,
2013-05-04 04:10:00,41.8,29.0,28.53,NNW,337,7.5,13.8,60,0.00,,,0.00,Rainwise IP-100,2013-05-04 09:10:00,
2013-05-04 04:15:00,41.9,29.0,28.53,WNW,292,8.9,14.5,60,0.00,,,0.00,Rainwise IP-100,2013-05-04 09:15:00,
2013-05-04 04:20:00,42.0,29.0,28.53,NNW,337,7.0,13.5,59,0.00,,,0.00,Rainwise IP-100,2013-05-04 09:20:00,
2013-05-04 04:25:00,41.9,29.0,28.53,NNW,337,14.7,14.7,59,0.00,,,0.00,Rainwise IP-100,2013-05-04 09:25:00,
2013-05-04 04:31:00,41.8,29.0,28.53,NW,315,10.3,14.7,60,0.00,,,0.00,Rainwise IP-100,2013-05-04 09:31:00,
2013-05-04 04:36:00,41.7,29.0,28.54,NW,315,6.1,14.2,60,0.00,,,0.00,Rainwise IP-100,2013-05-04 09:36:00,
2013-05-04 04:41:00,41.6,29.0,28.54,WNW,292,3.3,14.0,60,0.00,,,0.00,Rainwise IP-100,2013-05-04 09:41:00,
2013-05-04 04:46:00,41.5,29.0,28.53,NNW,337,9.8,11.7,61,0.00,,,0.00,Rainwise IP-100,2013-05-04 09:46:00,
2013-05-04 04:51:00,41.5,29.0,28.54,NNW,337,6.1,12.8,61,0.00,,,0.00,Rainwise IP-100,2013-05-04 09:51:00,
2013-05-04 04:56:00,41.5,31.0,28.53,West,270,3.0,15.2,62,0.00,,,0.00,Rainwise IP-100,2013-05-04 09:56:00,
2013-05-04 05:01:00,41.4,29.0,28.53,WNW,292,4.4,7.7,62,0.00,,,0.00,Rainwise IP-100,2013-05-04 10:01:00,
2013-05-04 05:06:00,41.3,29.0,28.53,NNW,337,6.8,10.3,63,0.00,,,0.00,Rainwise IP-100,2013-05-04 10:06:00,
2013-05-04 05:11:00,41.1,31.0,28.53,NNW,337,4.4,11.7,64,0.00,,,0.00,Rainwise IP-100,2013-05-04 10:11:00,
2013-05-04 05:16:00,41.1,31.0,28.53,WNW,292,9.6,11.4,64,0.00,,,0.00,Rainwise IP-100,2013-05-04 10:16:00,
2013-05-04 05:21:00,41.4,29.0,28.53,NW,315,6.3,12.4,63,0.00,,,0.00,Rainwise IP-100,2013-05-04 10:21:00,
2013-05-04 05:26:00,41.5,31.0,28.53,NW,315,6.8,12.4,63,0.00,,,0.00,Rainwise IP-100,2013-05-04 10:26:00,
2013-05-04 05:32:00,41.8,31.0,28.53,WNW,292,10.3,16.6,62,0.00,,,0.00,Rainwise IP-100,2013-05-04 10:32:00,
2013-05-04 05:37:00,42.0,29.0,28.52,NNW,337,6.5,12.6,61,0.00,,,0.00,Rainwise IP-100,2013-05-04 10:37:00,
2013-05-04 05:48:00,42.7,29.0,28.53,NW,315,11.9,0.0,58,0.00,,,0.00,Rainwise IP-100,2013-05-04 10:48:00,
2013-05-04 05:54:00,42.8,29.0,28.53,NNW,337,5.6,12.1,57,0.00,,,0.00,Rainwise IP-100,2013-05-04 10:54:00,
2013-05-04 05:59:00,42.7,29.0,28.53,NNW,337,11.9,14.9,56,0.00,,,0.00,Rainwise IP-100,2013-05-04 10:59:00,
2013-05-04 06:04:00,42.7,29.0,28.53,NNW,337,13.8,13.8,56,0.00,,,0.00,Rainwise IP-100,2013-05-04 11:04:00,
2013-05-04 06:09:00,42.6,29.0,28.53,WNW,292,12.1,14.5,56,0.00,,,0.00,Rainwise IP-100,2013-05-04 11:09:00,
2013-05-04 06:18:00,42.3,28.0,28.53,NNW,337,7.5,0.0,56,0.00,,,0.00,Rainwise IP-100,2013-05-04 11:18:00,
2013-05-04 06:23:00,42.2,28.0,28.52,NW,315,13.1,13.1,57,0.00,,,0.00,Rainwise IP-100,2013-05-04 11:23:00,
2013-05-04 06:28:00,42.2,28.0,28.53,NNW,337,6.3,13.1,57,0.00,,,0.00,Rainwise IP-100,2013-05-04 11:28:00,
2013-05-04 06:34:00,42.2,28.0,28.53,NW,315,9.1,12.6,57,0.00,,,0.00,Rainwise IP-100,2013-05-04 11:34:00,
2013-05-04 06:41:00,42.2,28.0,28.53,NW,315,11.7,11.7,57,0.00,,,0.00,Rainwise IP-100,2013-05-04 11:41:00,
2013-05-04 06:46:00,42.2,28.0,28.53,NW,315,9.6,18.2,57,0.00,,,0.00,Rainwise IP-100,2013-05-04 11:46:00,
2013-05-04 06:51:00,42.2,28.0,28.53,NNW,337,10.0,20.5,56,0.00,,,0.00,Rainwise IP-100,2013-05-04 11:51:00,
2013-05-04 06:56:00,42.1,28.0,28.52,WNW,292,14.9,19.8,56,0.00,,,0.00,Rainwise IP-100,2013-05-04 11:56:00,
2013-05-04 07:29:00,41.7,29.0,28.53,NNW,337,12.6,16.3,59,0.00,,,0.00,Rainwise IP-100,2013-05-04 12:29:00,
2013-05-04 07:34:00,41.7,29.0,28.53,NW,315,7.0,18.7,60,0.00,,,0.00,Rainwise IP-100,2013-05-04 12:34:00,
2013-05-04 07:39:00,41.8,29.0,28.53,NNW,337,11.7,18.7,60,0.00,,,0.00,Rainwise IP-100,2013-05-04 12:39:00,
2013-05-04 07:44:00,41.7,29.0,28.53,NNW,337,7.0,17.0,60,0.00,,,0.00,Rainwise IP-100,2013-05-04 12:44:00,
2013-05-04 07:49:00,41.7,29.0,28.53,NNW,337,18.0,18.0,61,0.00,,,0.00,Rainwise IP-100,2013-05-04 12:49:00,
2013-05-04 07:54:00,41.7,29.0,28.53,NNW,337,20.8,24.2,61,0.00,,,0.00,Rainwise IP-100,2013-05-04 12:54:00,
2013-05-04 07:59:00,41.6,29.0,28.53,NW,315,13.3,20.8,61,0.00,,,0.00,Rainwise IP-100,2013-05-04 12:59:00,
2013-05-04 08:04:00,41.6,29.0,28.53,NNW,337,15.6,20.8,61,0.00,,,0.00,Rainwise IP-100,2013-05-04 13:04:00,
2013-05-04 08:09:00,41.5,29.0,28.53,NNW,337,11.4,19.1,61,0.00,,,0.00,Rainwise IP-100,2013-05-04 13:09:00,
2013-05-04 08:14:00,41.3,29.0,28.53,North,360,10.7,18.9,62,0.00,,,0.00,Rainwise IP-100,2013-05-04 13:14:00,
2013-05-04 08:19:00,41.2,29.0,28.54,WNW,292,11.9,19.1,62,0.00,,,0.00,Rainwise IP-100,2013-05-04 13:19:00,
2013-05-04 08:24:00,41.2,29.0,28.54,NNW,337,12.1,20.5,63,0.00,,,0.00,Rainwise IP-100,2013-05-04 13:24:00,
2013-05-04 08:29:00,41.1,29.0,28.54,NNW,337,17.0,19.4,63,0.00,,,0.00,Rainwise IP-100,2013-05-04 13:29:00,
2013-05-04 08:34:00,41.1,31.0,28.54,NNW,337,12.1,17.7,64,0.00,,,0.00,Rainwise IP-100,2013-05-04 13:34:00,
2013-05-04 08:39:00,41.1,31.0,28.53,NNW,337,9.6,17.7,64,0.00,,,0.00,Rainwise IP-100,2013-05-04 13:39:00,
2013-05-04 08:44:00,41.0,31.0,28.53,NW,315,8.6,17.7,65,0.00,,,0.00,Rainwise IP-100,2013-05-04 13:44:00,
2013-05-04 08:49:00,41.1,31.0,28.53,NNW,337,10.5,18.9,65,0.00,,,0.00,Rainwise IP-100,2013-05-04 13:49:00,
2013-05-04 08:54:00,41.2,31.0,28.53,NNE,22,14.0,19.4,64,0.00,,,0.00,Rainwise IP-100,2013-05-04 13:54:00,
2013-05-04 08:59:00,41.3,31.0,28.54,NNW,337,10.7,20.1,64,0.00,,,0.00,Rainwise IP-100,2013-05-04 13:59:00,
2013-05-04 09:05:00,41.4,31.0,28.54,North,360,10.0,18.9,64,0.00,,,0.00,Rainwise IP-100,2013-05-04 14:05:00,
2013-05-04 09:10:00,41.4,31.0,28.55,North,360,9.8,17.0,65,0.00,,,0.00,Rainwise IP-100,2013-05-04 14:10:00,
2013-05-04 09:15:00,41.2,31.0,28.55,NW,315,11.2,18.2,67,0.00,,,0.00,Rainwise IP-100,2013-05-04 14:15:00,
2013-05-04 09:20:00,40.9,32.0,28.54,NNW,337,16.6,22.9,70,0.00,,,0.00,Rainwise IP-100,2013-05-04 14:20:00,
2013-05-04 09:25:00,40.8,32.0,28.54,NNW,337,17.7,24.2,71,0.00,,,0.00,Rainwise IP-100,2013-05-04 14:25:00,
2013-05-04 09:30:00,40.9,33.0,28.55,NNW,337,7.7,22.9,73,0.00,,,0.00,Rainwise IP-100,2013-05-04 14:30:00,
2013-05-04 09:35:00,41.0,33.0,28.55,NNW,337,13.1,17.7,74,0.00,,,0.00,Rainwise IP-100,2013-05-04 14:35:00,
2013-05-04 09:40:00,41.1,33.0,28.55,NNW,337,12.1,25.9,74,0.00,,,0.00,Rainwise IP-100,2013-05-04 14:40:00,
2013-05-04 09:45:00,41.0,33.0,28.55,North,360,17.0,25.4,74,0.06,,,0.01,Rainwise IP-100,2013-05-04 14:45:00,
2013-05-04 09:50:00,41.1,33.0,28.55,NNW,337,16.6,22.6,73,0.06,,,0.01,Rainwise IP-100,2013-05-04 14:50:00,
2013-05-04 09:55:00,41.2,33.0,28.56,NNW,337,7.2,24.7,72,0.00,,,0.01,Rainwise IP-100,2013-05-04 14:55:00,
2013-05-04 10:00:00,41.4,32.0,28.55,NW,315,11.2,24.9,71,0.00,,,0.01,Rainwise IP-100,2013-05-04 15:00:00,
2013-05-04 10:06:00,41.5,33.0,28.55,NNW,337,14.2,22.2,71,0.00,,,0.01,Rainwise IP-100,2013-05-04 15:06:00,
2013-05-04 10:11:00,41.7,33.0,28.55,NNW,337,13.8,22.9,71,0.00,,,0.01,Rainwise IP-100,2013-05-04 15:11:00,
2013-05-04 10:16:00,41.9,33.0,28.55,NNW,337,11.7,21.9,71,0.00,,,0.01,Rainwise IP-100,2013-05-04 15:16:00,
2013-05-04 10:21:00,42.1,33.0,28.56,NNW,337,19.8,21.9,70,0.00,,,0.01,Rainwise IP-100,2013-05-04 15:21:00,
2013-05-04 10:26:00,42.2,33.0,28.56,North,360,9.8,21.2,70,0.00,,,0.01,Rainwise IP-100,2013-05-04 15:26:00,
2013-05-04 10:31:00,42.4,33.0,28.56,NNW,337,9.1,21.2,70,0.00,,,0.01,Rainwise IP-100,2013-05-04 15:31:00,
2013-05-04 10:36:00,42.7,33.0,28.56,North,360,14.9,23.3,69,0.00,,,0.01,Rainwise IP-100,2013-05-04 15:36:00,
2013-05-04 11:04:00,43.4,33.0,28.57,NNW,337,14.9,0.0,68,0.00,,,0.01,Rainwise IP-100,2013-05-04 16:04:00,
2013-05-04 11:09:00,43.3,33.0,28.56,NNW,337,13.3,20.8,68,0.00,,,0.01,Rainwise IP-100,2013-05-04 16:09:00,
2013-05-04 11:14:00,43.3,33.0,28.58,NNW,337,19.1,19.1,67,0.00,,,0.01,Rainwise IP-100,2013-05-04 16:14:00,
2013-05-04 11:19:00,43.3,33.0,28.58,NNW,337,11.9,19.1,67,0.00,,,0.01,Rainwise IP-100,2013-05-04 16:19:00,
2013-05-04 11:26:00,43.2,33.0,28.58,NNW,337,11.7,15.6,67,0.00,,,0.01,Rainwise IP-100,2013-05-04 16:26:00,
2013-05-04 11:31:00,43.3,33.0,28.58,NNW,337,13.8,13.8,68,0.00,,,0.01,Rainwise IP-100,2013-05-04 16:31:00,
2013-05-04 11:37:00,43.3,33.0,28.59,North,360,15.2,15.2,68,0.00,,,0.01,Rainwise IP-100,2013-05-04 16:37:00,
2013-05-04 11:46:00,43.0,33.0,28.60,NNW,337,11.2,11.2,69,0.00,,,0.01,Rainwise IP-100,2013-05-04 16:46:00,
2013-05-04 11:55:00,42.4,33.0,28.60,NNW,337,14.0,0.0,72,0.00,,,0.01,Rainwise IP-100,2013-05-04 16:55:00,
2013-05-04 12:00:00,42.0,35.0,28.59,North,360,10.5,14.0,75,0.00,,,0.01,Rainwise IP-100,2013-05-04 17:00:00,
2013-05-04 12:06:00,41.9,36.0,28.59,North,360,9.1,11.7,77,0.00,,,0.01,Rainwise IP-100,2013-05-04 17:06:00,
2013-05-04 12:11:00,41.9,36.0,28.59,NNW,337,12.8,17.0,78,0.00,,,0.01,Rainwise IP-100,2013-05-04 17:11:00,
2013-05-04 12:16:00,41.9,37.0,28.59,North,360,7.5,18.7,80,0.00,,,0.01,Rainwise IP-100,2013-05-04 17:16:00,
2013-05-04 12:21:00,41.8,37.0,28.60,NNW,337,16.6,20.1,82,0.00,,,0.01,Rainwise IP-100,2013-05-04 17:21:00,
2013-05-04 12:26:00,41.5,38.0,28.59,North,360,10.7,19.4,84,0.00,,,0.01,Rainwise IP-100,2013-05-04 17:26:00,
2013-05-04 12:31:00,41.3,37.0,28.59,NNE,22,10.3,18.0,86,0.00,,,0.01,Rainwise IP-100,2013-05-04 17:31:00,
2013-05-04 12:36:00,41.2,38.0,28.59,North,360,11.2,18.4,88,0.00,,,0.01,Rainwise IP-100,2013-05-04 17:36:00,
2013-05-04 12:41:00,41.2,38.0,28.60,NNW,337,14.7,15.2,88,0.00,,,0.01,Rainwise IP-100,2013-05-04 17:41:00,
2013-05-04 12:46:00,41.2,38.0,28.60,NNW,337,7.9,18.0,89,0.00,,,0.01,Rainwise IP-100,2013-05-04 17:46:00,
2013-05-04 12:51:00,41.2,38.0,28.60,NNW,337,9.8,16.6,89,0.00,,,0.01,Rainwise IP-100,2013-05-04 17:51:00,
2013-05-04 12:56:00,41.5,39.0,28.59,NNW,337,11.0,15.6,89,0.00,,,0.01,Rainwise IP-100,2013-05-04 17:56:00,
2013-05-04 13:01:00,42.0,39.0,28.59,NNW,337,12.8,18.4,88,0.00,,,0.01,Rainwise IP-100,2013-05-04 18:01:00,
2013-05-04 13:07:00,42.4,38.0,28.59,North,360,11.9,20.8,86,0.00,,,0.01,Rainwise IP-100,2013-05-04 18:07:00,
2013-05-04 13:12:00,42.8,39.0,28.59,WNW,292,9.6,17.5,85,0.00,,,0.01,Rainwise IP-100,2013-05-04 18:12:00,
2013-05-04 13:17:00,42.8,39.0,28.59,NNW,337,14.7,19.1,85,0.00,,,0.01,Rainwise IP-100,2013-05-04 18:17:00,
2013-05-04 13:22:00,42.8,39.0,28.59,NNW,337,7.7,18.9,85,0.00,,,0.01,Rainwise IP-100,2013-05-04 18:22:00,
2013-05-04 13:27:00,42.8,39.0,28.58,NW,315,7.7,20.8,84,0.00,,,0.01,Rainwise IP-100,2013-05-04 18:27:00,
2013-05-04 13:32:00,42.9,39.0,28.59,NNW,337,7.7,17.3,84,0.00,,,0.01,Rainwise IP-100,2013-05-04 18:32:00,
2013-05-04 13:37:00,43.0,39.0,28.59,NNW,337,8.4,20.8,84,0.00,,,0.01,Rainwise IP-100,2013-05-04 18:37:00,
2013-05-04 13:42:00,42.9,38.0,28.59,NNW,337,7.2,15.9,83,0.00,,,0.01,Rainwise IP-100,2013-05-04 18:42:00,
2013-05-04 13:47:00,43.0,38.0,28.60,NNW,337,9.8,12.1,83,0.00,,,0.01,Rainwise IP-100,2013-05-04 18:47:00,
2013-05-04 13:52:00,43.1,38.0,28.59,North,360,12.8,15.4,82,0.00,,,0.01,Rainwise IP-100,2013-05-04 18:52:00,
2013-05-04 14:02:00,43.4,38.0,28.60,NNW,337,8.2,0.0,81,0.00,,,0.01,Rainwise IP-100,2013-05-04 19:02:00,
2013-05-04 14:07:00,43.6,38.0,28.59,NNW,337,8.6,8.6,81,0.00,,,0.01,Rainwise IP-100,2013-05-04 19:07:00,
2013-05-04 14:19:00,44.1,38.0,28.60,NNW,337,11.2,0.0,81,0.00,,,0.01,Rainwise IP-100,2013-05-04 19:19:00,
2013-05-04 14:25:00,44.4,38.0,28.60,North,360,14.7,14.7,80,0.00,,,0.01,Rainwise IP-100,2013-05-04 19:25:00,
2013-05-04 15:21:00,47.5,38.0,28.59,North,360,15.6,0.0,71,0.00,,,0.01,Rainwise IP-100,2013-05-04 20:21:00,
2013-05-04 16:22:00,47.7,38.0,28.58,NNW,337,19.8,0.0,70,0.00,,,0.01,Rainwise IP-100,2013-05-04 21:22:00,
2013-05-04 16:29:00,47.7,38.0,28.59,NNW,337,21.0,21.0,70,0.00,,,0.01,Rainwise IP-100,2013-05-04 21:29:00,
2013-05-04 17:16:00,48.1,39.0,28.60,North,360,5.6,0.0,72,0.00,,,0.01,Rainwise IP-100,2013-05-04 22:16:00,
2013-05-04 17:22:00,48.0,39.0,28.60,NNW,337,15.9,15.9,72,0.00,,,0.01,Rainwise IP-100,2013-05-04 22:22:00,
2013-05-04 17:38:00,47.4,39.0,28.61,NNW,337,10.0,0.0,74,0.00,,,0.01,Rainwise IP-100,2013-05-04 22:38:00,
2013-05-04 17:58:00,46.7,39.0,28.62,North,360,14.2,0.0,75,0.00,,,0.01,Rainwise IP-100,2013-05-04 22:58:00,
2013-05-04 18:04:00,46.5,39.0,28.62,North,360,14.0,14.2,76,0.00,,,0.01,Rainwise IP-100,2013-05-04 23:04:00,
2013-05-04 18:09:00,46.5,40.0,28.62,NNE,22,11.4,14.0,77,0.00,,,0.01,Rainwise IP-100,2013-05-04 23:09:00,
2013-05-04 18:21:00,46.1,39.0,28.63,NNW,337,9.1,0.0,77,0.00,,,0.01,Rainwise IP-100,2013-05-04 23:21:00,
2013-05-04 18:26:00,45.9,39.0,28.63,North,360,15.4,15.4,78,0.00,,,0.01,Rainwise IP-100,2013-05-04 23:26:00,
2013-05-04 18:44:00,45.5,39.0,28.63,North,360,12.1,0.0,79,0.00,,,0.01,Rainwise IP-100,2013-05-04 23:44:00,
2013-05-04 18:49:00,45.4,39.0,28.62,NNW,337,9.6,12.1,79,0.00,,,0.01,Rainwise IP-100,2013-05-04 23:49:00,
2013-05-04 18:54:00,45.3,39.0,28.63,North,360,7.2,10.3,79,0.00,,,0.01,Rainwise IP-100,2013-05-04 23:54:00,
2013-05-04 19:04:00,45.1,39.0,28.64,NNW,337,12.4,0.0,80,0.00,,,0.01,Rainwise IP-100,2013-05-05 00:04:00,
2013-05-04 19:25:00,44.8,40.0,28.64,NNE,22,8.2,0.0,82,0.00,,,0.01,Rainwise IP-100,2013-05-05 00:25:00,
2013-05-04 19:39:00,44.6,40.0,28.65,NNE,22,8.4,0.0,82,0.00,,,0.01,Rainwise IP-100,2013-05-05 00:39:00,
2013-05-04 19:48:00,44.5,40.0,28.65,NNW,337,11.7,0.0,83,0.00,,,0.01,Rainwise IP-100,2013-05-05 00:48:00,
2013-05-04 19:54:00,44.4,39.0,28.65,North,360,8.2,11.7,83,0.00,,,0.01,Rainwise IP-100,2013-05-05 00:54:00,
2013-05-04 20:00:00,44.2,39.0,28.64,North,360,10.7,10.7,84,0.00,,,0.01,Rainwise IP-100,2013-05-05 01:00:00,
2013-05-04 20:14:00,44.2,39.0,28.65,North,360,7.0,10.7,84,0.00,,,0.01,Rainwise IP-100,2013-05-05 01:14:00,
2013-05-04 20:20:00,44.0,40.0,28.66,NNW,337,8.6,8.6,85,0.00,,,0.01,Rainwise IP-100,2013-05-05 01:20:00,
2013-05-04 20:25:00,44.0,40.0,28.66,NNE,22,8.2,11.9,85,0.00,,,0.01,Rainwise IP-100,2013-05-05 01:25:00,
2013-05-04 20:31:00,43.9,40.0,28.66,North,360,8.4,9.3,86,0.00,,,0.01,Rainwise IP-100,2013-05-05 01:31:00,
2013-05-04 20:36:00,43.8,40.0,28.66,NNW,337,5.4,7.7,86,0.00,,,0.01,Rainwise IP-100,2013-05-05 01:36:00,
2013-05-04 20:44:00,43.7,40.0,28.66,North,360,5.6,10.3,87,0.00,,,0.01,Rainwise IP-100,2013-05-05 01:44:00,
2013-05-04 20:54:00,43.6,40.0,28.66,NNE,22,8.4,0.0,87,0.00,,,0.01,Rainwise IP-100,2013-05-05 01:54:00,
2013-05-04 20:59:00,43.6,41.0,28.66,NNE,22,11.4,11.4,88,0.00,,,0.01,Rainwise IP-100,2013-05-05 01:59:00,
2013-05-04 21:06:00,43.5,41.0,28.66,NNW,337,10.3,10.3,88,0.00,,,0.01,Rainwise IP-100,2013-05-05 02:06:00,
2013-05-04 21:17:00,43.5,41.0,28.67,North,360,13.5,0.0,89,0.00,,,0.01,Rainwise IP-100,2013-05-05 02:17:00,
2013-05-04 21:29:00,43.5,41.0,28.67,NNW,337,8.6,0.0,88,0.00,,,0.01,Rainwise IP-100,2013-05-05 02:29:00,
2013-05-04 21:34:00,43.5,41.0,28.67,North,360,11.4,11.4,88,0.00,,,0.01,Rainwise IP-100,2013-05-05 02:34:00,
2013-05-04 21:43:00,43.4,40.0,28.67,NNW,337,7.0,0.0,89,0.00,,,0.01,Rainwise IP-100,2013-05-05 02:43:00,
2013-05-04 21:48:00,43.3,40.0,28.68,NNE,22,5.8,11.9,89,0.00,,,0.01,Rainwise IP-100,2013-05-05 02:48:00,
2013-05-04 22:08:00,42.8,41.0,28.68,North,360,7.9,0.0,92,0.00,,,0.01,Rainwise IP-100,2013-05-05 03:08:00,
2013-05-04 22:20:00,42.8,41.0,28.69,NNE,22,11.7,0.0,92,0.00,,,0.01,Rainwise IP-100,2013-05-05 03:20:00,
2013-05-04 22:25:00,42.9,41.0,28.69,North,360,7.7,11.7,92,0.00,,,0.01,Rainwise IP-100,2013-05-05 03:25:00,
2013-05-04 22:30:00,43.1,40.0,28.69,NNE,22,6.3,7.7,90,0.00,,,0.01,Rainwise IP-100,2013-05-05 03:30:00,
2013-05-04 22:47:00,43.1,40.0,28.69,NNW,337,4.9,0.0,89,0.00,,,0.01,Rainwise IP-100,2013-05-05 03:47:00,
2013-05-04 22:54:00,43.1,40.0,28.69,NNW,337,7.9,10.3,89,0.00,,,0.01,Rainwise IP-100,2013-05-05 03:54:00,
2013-05-04 23:00:00,43.0,40.0,28.69,North,360,9.6,9.6,89,0.00,,,0.01,Rainwise IP-100,2013-05-05 04:00:00,
2013-05-04 23:59:00,42.6,41.0,28.71,NNW,337,5.1,0.0,93,0.00,,,0.01,Rainwise IP-100,2013-05-05 04:59:00,